Regional Weather Roundup
Issued by NWS Binghamton, NY

Home | Current Version | Previous Version | Text Only | Print | Product List | Glossary On
Versions: 1 2 3 4 5 6 7 8 9 10 11 12 13 14 15 16 17 18 19 20 21 22 23 24 25 26 27
000
ASUS41 KBGM 240410
RWRBGM

REGIONAL WEATHER ROUNDUP
NATIONAL WEATHER SERVICE BINGHAMTON NY
1200 AM EDT WED MAY 24 2017

Note: "fair" indicates few or no clouds below 12,000 feet with no
significant weather and/or obstructions to visibility.

* = Station(s) that does not report precipitation, such as rain,
snow, etc, also no thunder or fog.

NYZ009-015>018-022>025-036-037-044>046-055>057-062-240500
...Central New York...

CITY           SKY/WX    TMP DP  RH WIND       PRES   REMARKS
Binghamton     MOCLDY    55  44  66 SE5       29.81F
Cortland       FAIR      52  50  93 CALM      29.81F
Dansville      PTCLDY    56  49  77 S3        29.78F
Elmira         MOCLDY    51  45  79 E3        29.79F
Ithaca         CLOUDY    57  45  64 SE6       29.80F
Hamilton       CLEAR     52  48  87 CALM      29.82S
Hornell        CLEAR     54  48  82 S3        29.82S
Monticello     CLOUDY    52  50  93 N5        29.84F
Norwich        CLEAR     52  48  87 CALM      29.82S
Oneonta        CLEAR     54  28  37 CALM      29.83S
Penn Yan       PTCLDY    55  49  80 N3        29.79F
Rome           PTCLDY    53  50  89 SE5       29.81S
Sidney         CLEAR     54  54 100 CALM      29.82S
Syracuse       PTCLDY    57  51  80 E3        29.78S
$$

PAZ038>040-043-044-047-048-072-240500
...Northeast Pennsylvania...

CITY           SKY/WX    TMP DP  RH WIND       PRES   REMARKS
Hazleton       CLOUDY    50  41  71 CALM      29.83F
Scranton       CLOUDY    55  49  80 E5        29.80F
$$
&&
KEY
WCI = Wind Chill Index
VSB = Visibility
HX  = Heat Index
$$




USA.gov is the U.S. government's official web portal to all federal, state and local government web resources and services.